Location: Unspecified
(0.0000°N, 0.0000°E)
Time: 21:51:09
(UTC+00:00)

N. Korean satellite - Pass Details

Date: 27 May 2017
Orbit: 459 x 517 km, 97.2° (Epoch: 18 October)

Event Time Altitude Azimuth Distance (km) Brightness Sun altitude
Rises 17:48:20 0° 135° (SE) 2,567 9.7 2.1°
Reaches altitude 10° 17:51:24 10° 106° (ESE) 1,697 8.7 1.4°
Drops below altitude 10° 17:54:47 10° 51° (NE) 1,708 9.1 0.6°
Enters shadow 18:57:10 -55° 171° (S) 11,035 13.4 -13.9°
Maximum altitude 19:26:22 17° 259° (W) 1,329 9.5 -20.7°
